STARLINK-32475, 61728

Orbit data source: Space-Track

STARLINK-32475, 61728 is a payload satellite owned by SpaceX/Seattle (US) in LEO that was launched on Wed, 30 Oct 2024 UTC via an FALCON 9 launch vehicle from the Air Force Eastern Test Range (AFETR). Payload-class satellites include a variety of spacecraft equipped with specific instruments for various scientific and technological missions. These include communications satellites like Starlink; space stations such as the ISS; scientific satellites like the Hubble; Earth observation satellites from companies like Planet Labs, Umbra, and HawkEye 360; GPS; miniature CubeSats for education and research; and military/defense satellites.

Loading next visibility...
Identifier
61728, 2024-196X
Orbit
LEO
Country
Flag of USUS
Related business
Manufacturer
SpaceX/Seattle
Mission
Operational Commercial Communications
Bus & Motor
STARLINK V2M, Unknown motor
Mass
730 kg wet, ~700 kg dry
Launch date (UTC)
2024-10-30 (11 months ago)
Launch vehicle
FALCON 9
Launch site
Air Force Eastern Test Range (AFETR)
Object type
Payload
Rocket body
Debris
Shape & HBR
Box + 2 Pan, 14.5 m
Radar Cross Section
36.964 m², Large (>1 m²)

Expand to show TLE details & history
Last TLE update: 18 hours ago

TLE from 18 hours ago
0 STARLINK-32475
1 61728U 24196X   25258.55446335 -.00002684  00000-0 -78501-4 0  9990
2 61728  53.1628 194.7483 0001282  87.9036 272.2112 15.30209745 50348
Epoch: 2025-09-15T13:18Z
TLE epoch observation values (Epoch: 2025-09-15T13:18:25.633Z)
Latitude
0.00001°
Longitude
0.38406°
Altitude
476.052 km
Speed
7.629 km/s
True Right ascension
12h 58m 59s
True Declination
0° 00' 00"
Sunlit
Object was in daylight at epoch
Visualization orbit readout
Latitude
Unknown
Longitude
Unknown
Altitude
Unknown
Speed
Unknown
Apparent Right ascension
Unknown
Apparent Declination
Unknown
Sunlit
N/A
Visualization observer readout
Local Sidereal Time
23:42:34
Azimuth
Unknown
Elevation
Unknown
Doppler factor
Unknown
Orbital elements
Apogee altitude
476.321 km
Perigee altitude
474.563 km
Semi-major axis
6,853.579 km
Eccentricity
0.00013
Inclination
53.1628°
RAAN
194.7483°
Arg. of periapsis
87.9036°
True anomaly
272.19652°
Mean anomaly
272.2112°
Eccentric anomaly
272.20386°
Mean motion
3.82531 °/min
Orbital period
94.11 mins
BSTAR
-0.000078501
Loading maneuver chart data...
Computing Atmospheric mass density...
Loading historical data...
Loading historical data...
Loading historical data...
Loading historical data...
Loading historical data...
Loading historical data...
Loading historical data...

Documentation

Showing up to 5 results
|